Regional Weather Roundup
Issued by NWS

Home | Current Version | Previous Version | Graphics & Text | Print | Product List | Glossary Off
Versions: 1 2 3 4 5 6 7 8 9 10 11 12 13 14 15 16 17 18 19 20 21 22 23 24 25 26 27 28 29 30 31 32 33 34 35 36 37 38 39 40 41 42 43 44 45 46 47 48 49 50

376
ASUS43 KLOT 250008
RWRIL

ILLINOIS REGIONAL WEATHER ROUNDUP
NATIONAL WEATHER SERVICE CHICAGO/ROMEOVILLE IL
600 PM CST TUE JAN 24 2017

NOTE: "FAIR" INDICATES FEW OR NO CLOUDS BELOW 12,000 FEET WITH NO
SIGNIFICANT WEATHER AND/OR OBSTRUCTIONS TO VISIBILITY.

* THESE STATIONS ARE NOT UNDER NWS QUALITY CONTROL. THEY ALSO MAY NOT
  REPORT WEATHER SUCH AS PRECIPITATION OR FOG.

ILZ001-002-007-009-015-016-024-250100-
NORTHWEST ILLINOIS

CITY           SKY/WX    TMP DP  RH WIND       PRES   REMARKS
MOLINE         CLOUDY    37  32  82 E14       29.68F WCI  28
6HR MIN TEMP:  37; 6HR MAX TEMP:  38; 6HR PCP: TRACE;

STERLING*      CLOUDY    36  34  92 E13       29.75F WCI  27
SAVANNA*       CLOUDY    36  32  88 E15       29.72F WCI  26
$$

ILZ003-004-008-010-011-017-018-250100-
NORTH CENTRAL ILLINOIS

CITY           SKY/WX    TMP DP  RH WIND       PRES   REMARKS
ROCKFORD       CLOUDY    35  31  85 E7        29.80F WCI  29
6HR MIN TEMP:  35; 6HR MAX TEMP:  37;

FREEPORT*      CLOUDY    33  32  94 E9        29.79S WCI  26
ROCHELLE*      CLOUDY    35  32  92 E9        29.79R WCI  27
DE KALB*       CLOUDY    34  32  93 E7        29.79F WCI  28
PERU*          CLOUDY    37  32  83 E7        29.77S WCI  31
$$

ILZ005-006-012>014-019>023-250100-
NORTHEAST ILLINOIS

CITY           SKY/WX    TMP DP  RH WIND       PRES   REMARKS
CHICAGO-OHARE  CLOUDY    36  31  82 E9        29.80F WCI  29
6HR MIN TEMP:  35; 6HR MAX TEMP:  36;

CHICAGO-MIDWAY CLOUDY    37  30  75 E9        29.82F WCI  30
6HR MIN TEMP:  37; 6HR MAX TEMP:  38;

AURORA         CLOUDY    37  32  82 E8        29.79F WCI  31
6HR MIN TEMP:  37; 6HR MAX TEMP:  38;

LANSING*       CLOUDY    36  34  92 E7        29.84S WCI  31
JOLIET*        CLOUDY    38  34  84 E7        29.79F WCI  33
WAUKEGAN       CLOUDY    35  32  88 SE3       29.82R
6HR MIN TEMP:  35; 6HR MAX TEMP:  37;

DUPAGE AIRPORT CLOUDY    36  30  79 E7        29.78F WCI  30
6HR MIN TEMP:  35; 6HR MAX TEMP:  37; 6HR PCP: TRACE;

KANKAKEE*      CLOUDY    38  33  83 E9        29.80F WCI  31
WHEELING       CLOUDY    36  31  82 E5        29.82F WCI  32
6HR MIN TEMP:  35; 6HR MAX TEMP:  36;

MORRIS*        CLOUDY    37  33  84 E9        29.77F WCI  31
ROMEOVILLE*    CLOUDY    37  35  92 SE8       29.80F WCI  30
NORTHERLY ISL    N/A     34  32  92 E6          N/A  WCI  29
$$

LMZ740>746-250100-
SOUTHERN LAKE MICHIGAN

STATION/POSITION SKY/WX   TEMP    WIND        PRES    VSBY  WAVE
                          AIR SEA DIR/SP/G                  HT/PER
                          (F)     (DEG/KT/KT) (MB)    (MI)  (FT/S)
HARRISON CRIB              36      80/  9/  9   N/A
BURNHAM HARBOR             34      80/  6/  7   N/A
CALUMET HARBOR             34     100/  5/  7 1009.8F
BURNS HARBOR               35      60/  5/  6 1011.2F
$$

ILZ025>027-034>036-040-047-049-050-058-095>099-250100-
WEST-CENTRAL ILLINOIS

CITY           SKY/WX    TMP DP  RH WIND       PRES   REMARKS
QUINCY         CLEAR     41  35  79 SE15      29.60F
GALESBURG*     CLOUDY    37  33  87 E13G22    29.66F WCI  29
MACOMB*        CLOUDY    38  35  87 E14       29.69R WCI  30
JACKSONVILLE*  CLOUDY    42  36  79 E15       29.65R
PITTSFIELD*    PTCLDY    43  37  79 E14       29.63S
$$

ILZ028>032-037-038-041>044-048-051>054-059>061-250100-
CENTRAL ILLINOIS

CITY           SKY/WX    TMP DP  RH WIND       PRES   REMARKS
PONTIAC        CLOUDY    39  37  92 E14       29.77S WCI  31
BLOOMINGTON    CLOUDY    38  35  89 SE16      29.75S WCI  29
DECATUR        PTCLDY    38  36  92 SE13      29.74F WCI  30
PEORIA         CLOUDY    39  35  86 E13G18    29.71F WCI  31
6HR MIN TEMP:  38; 6HR MAX TEMP:  40; 6HR PCP: TRACE;

LACON*         CLOUDY    38  34  87 E9        29.73F WCI  31
LINCOLN*       CLEAR     39  36  88 E12G18    29.71F WCI  32
SPRINGFIELD    CLEAR     42  36  79 E17       29.66F
6HR MIN TEMP:  42; 6HR MAX TEMP:  47; 6HR PCP: TRACE;

TAYLORVILLE    CLOUDY    40  36  83 SE16G25   29.70F
6HR MIN TEMP:  40; 6HR MAX TEMP:  44;

$$

ILZ033-039-045-046-055>057-062-063-250100-
EAST-CENTRAL ILLINOIS

CITY           SKY/WX    TMP DP  RH WIND       PRES   REMARKS
CHAMPAIGN      CLOUDY    40  35  83 E12       29.77F
RANTOUL*       MOCLDY    40  37  87 SE9       29.78F
MATTOON        PTCLDY    39  34  82 SE10      29.77F WCI  32
PARIS*         CLOUDY    40  36  85 SE7       29.81F
$$

ILZ079-100>102-250100-
SOUTHWEST ILLINOIS

CITY           SKY/WX    TMP DP  RH WIND       PRES   REMARKS
ALTON          PTCLDY    43  36  75 E17       29.65F
BELLEVILLE     CLOUDY    45  38  76 E15       29.66F
CAHOKIA*       CLOUDY    48  36  63 SE14      29.65F
SPARTA*        CLEAR     47  35  63 SE12G20   29.70F
$$

ILZ064>066-069>071-074>076-080>082-084>086-088>090-092>094-250100-
SOUTH-CENTRAL ILLINOIS

CITY           SKY/WX    TMP DP  RH WIND       PRES   REMARKS
CARBONDALE     CLEAR     48  36  63 SE8       29.73F
6HR MIN TEMP:  47; 6HR MAX TEMP:  52;

CAIRO*         CLEAR     49  38  65 SE6       29.75S
EFFINGHAM*     CLOUDY    41  37  86 E13       29.79F
MARION         PTCLDY    48  36  61 SE9       29.74F
MT. VERNON     PTCLDY    44  37  76 E8        29.75F
CENTRALIA*     MOCLDY    46  38  76 E10       29.72F
SALEM*         CLEAR     46  36  69 E8        29.74F
METROPOLIS*    CLEAR     50  36  57 CALM      29.77F
$$

ILZ067-068-072-073-078-083-087-091-250100-
SOUTHEAST ILLINOIS

CITY           SKY/WX    TMP DP  RH WIND       PRES   REMARKS
LAWRENCEVILLE  CLOUDY    42  37  82 E6        29.82F
FLORA*         CLOUDY    44  37  77 SE9       29.79F
FAIRFIELD*     PTCLDY    43  37  78 E6        29.78F
HARRISBURG*    CLEAR     46  39  77 E8        29.78F
ROBINSON*      CLOUDY    40  35  79 SE7       29.83F
CARMI*         CLOUDY    43  38  82 E10       29.79F
$$

ABBREVIATIONS USED IN REMARKS
   TC - TEMPERATURE IN CELSIUS
  WCI - WIND CHILL INDEX
   HX - HEAT INDEX
  VSB - VISIBILITY
$$





USA.gov is the U.S. government's official web portal to all federal, state and local government web resources and services.